User: anonymous   Login
Location: Unspecified
(0.0000°N, 0.0000°E)
Time: 10:51:53
(UTC+00:00)
Language:

UFO-8 - Orbit

View from above orbital plane
View from above orbital plane
View from above satellite
View from above satellite

Ground track
Ground track

The orbit data is extracted from the following two-line orbital elements,

1 25258U 98016A   18252.65344565 0.00000000  00000-0  00000-0 0    05
2 25258   7.9884  35.6589 0003996  66.8451 293.2308  1.00270000    00
Epoch (UTC): 09 September 2018 15:40:57
Eccentricity: 0.0003996
inclination: 7.9884°
perigee height: 35770 km
apogee height: 35803 km
right ascension of ascending node: 35.6589°
argument of perigee: 66.8451°
revolutions per day: 1.00270000
mean anomaly at epoch: 293.2308°
orbit number at epoch: 0

The dashed part of the orbit path shows where the satellite is in the earth's shadow,  

DLR